Regional Weather Roundup
Issued by NWS

Home | Current Version | Previous Version | Graphics & Text | Print | Product List | Glossary On
Versions: 1 2 3 4 5 6 7 8 9 10 11 12 13 14 15 16 17 18 19 20 21 22 23 24 25 26 27 28 29 30 31 32 33 34 35 36 37 38 39 40 41 42 43 44 45 46 47 48 49 50
000
ASUS43 KDMX 011107
RWRIA

WEATHER ROUNDUP FOR IOWA
NATIONAL WEATHER SERVICE DES MOINES IA
600 AM CDT MON SEP 01 2014

NOTE: "FAIR" INDICATES FEW OR NO CLOUDS BELOW 12,000 FEET WITH NO
SIGNIFICANT WEATHER AND/OR OBSTRUCTIONS TO VISIBILITY.

* - THESE STATIONS ARE NOT NWS STATIONS...THUS NOT UNDER NWS
QUALITY CONTROL.  THEY ALSO DO NOT REPORT WEATHER SUCH
AS PRECIPITATION OR FOG.

IAZ001>003-012>014-020>022-031>034-043>046-011200-
   NORTHWEST IOWA

CITY           SKY/WX    TMP DP  RH WIND       PRES   REMARKS
CARROLL *      CLOUDY    66  64  94 SW9       29.72R
CHEROKEE *     CLEAR     61  61 100 W3        29.71R
DENISON *      MOCLDY    64  64 100 SW6       29.71R FOG
LE MARS *      CLEAR     61  61 100 CALM      29.73R
ORANGE CITY *  CLEAR     63  57  82 NW6       29.72S
SHELDON *      MOCLDY    61  61 100 NW5       29.71S
SIOUX CITY     CLEAR     60  59  96 W5        29.74R
SPENCER        LGT RAIN  64  63  96 NW9       29.69F FOG
STORM LAKE *   CLOUDY    64  64 100 W8        29.71R FOG
$$

IAZ055>058-069>071-079>083-090>094-011200-
   SOUTHWEST IOWA

CITY           SKY/WX    TMP DP  RH WIND       PRES   REMARKS
ATLANTIC *     CLOUDY    68  66  94 SW10      29.74R
AUDUBON *      PTCLDY    70  66  88 SW12      29.74R
CLARINDA *     CLOUDY    68  66  94 SW10      29.78S
COUNCIL BLFS * CLOUDY    66  66 100 S5        29.74R
CRESTON *      CLOUDY    66  64  94 SW14      29.77R
HARLAN  *      CLOUDY    66  66 100 SW6       29.77R
LAMONI         CLOUDY    66  63  90 SW10      29.77R
RED OAK *      CLOUDY    68  66  94 SW14      29.76R
SHENANDOAH *   CLOUDY    68  66  94 SW10      29.77S
$$

IAZ047>049-059>061-072>074-084-011200-
   CENTRAL IOWA

CITY           SKY/WX    TMP DP  RH WIND       PRES   REMARKS
AMES           CLOUDY    67  65  93 SW12      29.72R
ANKENY *       CLOUDY    68  64  88 SW13G22   29.73R
CHARITON *     MOCLDY    66  63  88 SW9       29.76R
DES MOINES     CLOUDY    69  64  84 SW17      29.73R
GRINNELL*      CLOUDY    64  63  94 S7        29.74R
KNOXVILLE *    CLOUDY    66  64  94 S5        29.73R
MARSHALLTOWN   LGT RAIN  66  63  90 S9        29.72R
PELLA *        CLOUDY    66  64  94 S3        29.74R
PERRY *        LGT RAIN  68  66  94 SW10G16   29.72R
$$

IAZ004>006-015-016-023>025-035-036-011200-
   NORTH CENTRAL IOWA

CITY           SKY/WX    TMP DP  RH WIND       PRES   REMARKS
ALGONA *       CLOUDY    66  64  94 W6        29.69R
CLARION *      CLOUDY    66  66 100 SW13      29.69R
ESTHERVILLE    CLOUDY    64  63  96 W6        29.69S
FORT DODGE *   CLOUDY    66  64  94 SW9       29.70R
MASON CITY     CLOUDY    65  64  97 S8        29.68S
FOREST CITY *  CLOUDY    66  66 100 SW7       29.67S
IOWA FALLS *   DRIZZLE   64  63  94 S12       29.72S
$$

IAZ007>011-017>019-026>030-037>042-050>054-066-011200-
   NORTHEAST IOWA

CITY           SKY/WX    TMP DP  RH WIND       PRES   REMARKS
CEDAR RAPIDS   CLOUDY    64  64 100 W5        29.73S
CHARLES CITY * LGT RAIN  64  63  94 S12       29.70F
CLINTON *      MOCLDY    64  63  94 SE15      29.69F
DECORAH *      CLOUDY    64  63  94 SW8G15    29.70R
DUBUQUE        CLOUDY    64  62  93 S8        29.69F
MONTICELLO *   CLEAR     64  64 100 W8        29.73R
OELWEIN *      MOCLDY    64  63  94 S10       29.72F
WATERLOO       CLOUDY    66  63  90 S10       29.70S
$$

IAZ064-065-067-068-078-011200-
   EAST CENTRAL IOWA

CITY           SKY/WX    TMP DP  RH WIND       PRES   REMARKS
DAVENPORT      CLOUDY    65  63  93 SE16      29.68F
IOWA CITY      CLOUDY    65  64  97 S5        29.74S
MT. PLEASANT * CLOUDY    66  64  94 S7        29.79R
MUSCATINE *    MOCLDY    68  64  88 SW12G24   29.77R
QUAD CITIES    CLOUDY    66  64  93 SE15      29.70F
$$

IAZ062-063-075>077-085>089-095>099-011200-
   SOUTHEAST IOWA

CITY           SKY/WX    TMP DP  RH WIND       PRES   REMARKS
BURLINGTON     LGT RAIN  67  65  93 S9        29.77F
FAIRFIELD *    MOCLDY    68  64  88 SE18      29.70F
FORT MADISON * LGT RAIN  68  66  94 SW9       29.81R
KEOKUK *       LGT RAIN  70  68  94 SW14      29.81R
OSKALOOSA *    MOCLDY    66  64  94 CALM      29.75R
CENTERVILLE *  MOCLDY    64  64 100 W8        29.77R
OTTUMWA        CLOUDY    67  64  90 W14G21    29.76R
WASHINGTON *   CLEAR     66  66 100 S7        29.75R
$$

ABBREVIATIONS USED IN REMARKS
   TC - TEMPERATURES IN CELSIUS
  WCI - WIND CHILL INDEX
   HX - HEAT INDEX
  VSB - VISIBILITY
$$



USA.gov is the U.S. government's official web portal to all federal, state and local government web resources and services.